Weather History for Worcester, MA

Change the Weather History Date:

Wednesday, July 25, 2012

  Actual Average Record
Temperature  
Mean Temperature 70 °F 71 °F  
Max Temperature 81 °F 79 °F 93 °F (1941)
Min Temperature 59 °F 62 °F 48 °F (1953)
Degree Days  
Heating Degree Days 0 0  
Month to date heating degree days 2 9  
Since 1 June heating degree days 84 92  
Since 1 July heating degree days 2 9  
Cooling Degree Days 5 6  
Month to date cooling degree days 232 141  
Year to date cooling degree days 380 247  
Since 1 June cooling degree days 319 225  
Growing Degree Days 20 (Base 50)    
Moisture  
Dew Point 50 °F    
Average Humidity 52    
Maximum Humidity 75    
Minimum Humidity 28    
Precipitation  
Precipitation 0.00 in 0.14 in 1.57 in (1977)
Month to date precipitation 0.42 3.37  
Year to date precipitation 19.18 26.79  
Snow  
Snow 0.00 in 0.00 in 0.00 in (2002)
Month to date snowfall 0.0 0.0  
Since 1 June snowfall 0.0 0.0  
Since 1 July snowfall 0.0 0.0  
Snow Depth 0.00 in    
Sea Level Pressure  
Sea Level Pressure 29.81 in    
Wind  
Wind Speed 9 mph (NW)    
Max Wind Speed 20 mph    
Max Gust Speed 26 mph    
Visibility 10 miles    
Events      
T = Trace of Precipitation, MM = Missing Value Source: NWS Daily Summary

Daily Weather History Graph

Daily Weather History Graph

Search for Another Location

Airport:

Trip Planner

Search our weather history database for the weather conditions in past years. The results will help you decide how hot, cold, wet, or windy it might be!

Date:

Astronomy

Jul. 25, 2012 Rise Set
Actual Time 5:33 AM EDT 8:13 PM EDT
Civil Twilight 5:01 AM EDT 8:46 PM EDT
Nautical Twilight 4:20 AM EDT 9:26 PM EDT
Astronomical Twilight 3:34 AM EDT 10:12 PM EDT
Moon 12:45 PM EDT (7/25) 11:26 PM EDT (7/25)
Length of Visible Light 15h 44m
Length of Day
14h 39m
Waxing Crescent, 42% of the Moon is Illuminated
Jul 25
Waxing Crescent
Jul 26
First Quarter
Aug 1
Full
Aug 9
Last Quarter
Aug 17
New

Hourly Weather History & Observations

Time (EDT) Temp. Dew Point Humidity Pressure Visibility Wind Dir Wind Speed Gust Speed Precip Events Conditions
12:54 AM 63.0 °F 51.1 °F 65% 29.75 in 10.0 mi NW 12.7 mph - N/A   Clear
1:54 AM 61.0 °F 51.1 °F 70% 29.75 in 10.0 mi NW 13.8 mph - N/A   Clear
2:54 AM 61.0 °F 51.1 °F 70% 29.75 in 10.0 mi NW 11.5 mph - N/A   Clear
3:54 AM 61.0 °F 51.1 °F 70% 29.77 in 10.0 mi NW 11.5 mph - N/A   Clear
4:54 AM 61.0 °F 51.1 °F 70% 29.78 in 10.0 mi NW 11.5 mph 18.4 mph N/A   Clear
5:54 AM 59.0 °F 51.1 °F 75% 29.80 in 10.0 mi NW 12.7 mph - N/A   Clear
6:54 AM 62.1 °F 51.1 °F 67% 29.82 in 10.0 mi NW 13.8 mph - N/A   Clear
7:54 AM 63.0 °F 51.1 °F 65% 29.83 in 10.0 mi NNW 11.5 mph 19.6 mph N/A   Clear
8:54 AM 66.0 °F 51.1 °F 59% 29.83 in 10.0 mi NNW 10.4 mph - N/A   Clear
9:54 AM 68.0 °F 52.0 °F 56% 29.84 in 10.0 mi NW 11.5 mph - N/A   Partly Cloudy
10:54 AM 70.0 °F 48.9 °F 47% 29.84 in 10.0 mi NW 13.8 mph 26.5 mph N/A   Partly Cloudy
11:54 AM 71.1 °F 52.0 °F 51% 29.84 in 10.0 mi WNW 15.0 mph 19.6 mph N/A   Partly Cloudy
12:54 PM 75.0 °F 51.1 °F 43% 29.84 in 10.0 mi NW 15.0 mph 20.7 mph N/A   Clear
1:54 PM 77.0 °F 50.0 °F 39% 29.83 in 10.0 mi WNW 12.7 mph 19.6 mph N/A   Clear
2:54 PM 80.1 °F 48.9 °F 34% 29.82 in 10.0 mi NNW 11.5 mph 18.4 mph N/A   Clear
3:54 PM 80.1 °F 48.0 °F 32% 29.82 in 10.0 mi NW 9.2 mph 19.6 mph N/A   Clear
4:54 PM 80.1 °F 46.0 °F 30% 29.82 in 10.0 mi NW 12.7 mph - N/A   Clear
5:54 PM 80.1 °F 45.0 °F 29% 29.83 in 10.0 mi NNW 8.1 mph - N/A   Clear
6:54 PM 77.0 °F 46.0 °F 33% 29.83 in 10.0 mi NNW 5.8 mph - N/A   Clear
7:54 PM 73.9 °F 46.9 °F 38% 29.83 in 10.0 mi Calm Calm - N/A   Clear
8:54 PM 70.0 °F 51.1 °F 51% 29.83 in 10.0 mi NW 3.5 mph - N/A   Clear
9:54 PM 70.0 °F 48.9 °F 47% 29.83 in 10.0 mi Calm Calm - N/A   Clear
10:54 PM 70.0 °F 48.9 °F 47% 29.82 in 10.0 mi Calm Calm - N/A   Clear
11:54 PM 69.1 °F 48.9 °F 49% 29.81 in 10.0 mi SW 3.5 mph - N/A   Clear